Regional Weather Roundup
Issued by NWS

Home | Current Version | Previous Version | Text Only | Print | Product List | Glossary Off
Versions: 1 2 3 4 5 6 7 8 9 10 11 12 13 14 15 16 17 18 19 20 21 22 23 24 25 26 27 28 29 30 31 32 33 34 35 36 37 38 39 40 41 42 43 44 45 46 47 48 49 50

000
ASUS45 KPSR 230400
RWRAZ

PRELIMINARY ARIZONA REGIONAL HOURLY WEATHER ROUNDUP
NATIONAL WEATHER SERVICE PHOENIX AZ
900 PM MST TUE APR 22 2014

NOTE: FAIR INDICATES FEW OR NO CLOUDS BELOW 12,000 FEET WITH NO
SIGNIFICANT WEATHER AND/OR OBSTRUCTIONS TO VISIBILITY.

AZZ001>003-036-230500-
NORTHWEST ARIZONA

CITY           SKY/WX    TMP DP  RH WIND       PRES   REMARKS
KINGMAN        PTCLDY    64  -5   6 SW16      29.80R
$$

AZZ004>008-015-016-018-230500-
NORTH CENTRAL ARIZONA

CITY           SKY/WX    TMP DP  RH WIND       PRES   REMARKS
GRAND CANYON   MOCLDY    53  20  27 SW12      29.90R
WILLIAMS       MOCLDY    54  27  35 S13G18    29.99R
PRESCOTT       MOCLDY    63  22  20 VRB5      29.89R
FLAGSTAFF      MOCLDY    56  24  29 SW21G31   29.92S
PAYSON         MOCLDY    66  25  20 SW12G26   29.92R
PAGE           CLOUDY    72  24  16 SW17G38   29.71R
$$

AZZ009>014-017-230500-
NORTHEAST ARIZONA

CITY           SKY/WX    TMP DP  RH WIND       PRES   REMARKS
WINSLOW        NOT AVBL
SAINT JOHNS    CLOUDY    64  26  23 S5        29.90R
WINDOW ROCK    CLOUDY    61  24  24 SW14G23   29.93R
SHOW LOW       MOCLDY    57  25  28 S10       29.96S
$$

AZZ023-230500-
GREATER PHOENIX AREA

CITY           SKY/WX    TMP DP  RH WIND       PRES   REMARKS
PHOENIX        MOCLDY    85  32  15 SW14      29.70R
DEER VALLEY    MOCLDY    81  29  15 SW14      29.71R
SCOTTSDALE     MOCLDY    84  31  14 SW12G20   29.73R
MESA-GATEWAY   MOCLDY    81  28  15 SW12      29.75R
CHANDLER       MOCLDY    84  30  14 S14       29.72R
$$

AZZ027-028-230500-
SOUTHWEST MARICOPA COUNTY AND PINAL COUNTY

CITY           SKY/WX    TMP DP  RH WIND       PRES   REMARKS
CASA GRANDE    CLOUDY    81  28  15 SW8       29.76R
GILA BEND      PTCLDY    82  28  14 S13       29.73R
$$

AZZ503-504-507>509-230500-
SOUTHEAST ARIZONA

CITY           SKY/WX    TMP DP  RH WIND       PRES   REMARKS
TUCSON         CLOUDY    79  29  16 W14       29.84R
DAVIS-MONTHAN  MOCLDY    78  31  17 W10       29.83R
NOGALES        MOCLDY    71  27  19 SW9       29.92R
SIERRA VISTA   MOCLDY    72  19  14 SW12      29.95R
SAFFORD        MOCLDY    79  21  11 W15       29.79R
$$

AZZ020-021-025-026-031-230500-
SOUTHWEST ARIZONA

CITY           SKY/WX    TMP DP  RH WIND       PRES   REMARKS
YUMA           NOT AVBL
$$

CAZ031-033-041-043-047-048-061-230500-
SOUTHERN CALIFORNIA

CITY           SKY/WX    TMP DP  RH WIND       PRES   REMARKS
DOWNTOWN L.A.  CLEAR     61  47  59 CALM      29.90S
L.A. AIRPORT   CLEAR     61  48  62 W15       29.92R
SAN DIEGO      MOCLDY    62  51  67 W7        29.97R
BURBANK        CLEAR     61  48  62 E7        29.90R
ONTARIO        CLEAR     60  48  64 W13       29.91R
RIVERSIDE      CLEAR     61  48  62 W9        29.91R
PALM SPRINGS   CLEAR     75  39  27 N12       29.75R
EL CENTRO NAS  PTCLDY    72  30  21 W30G37    29.75R
IMPERIAL       CLEAR     70  31  23 W15       29.76R
BLYTHE         CLEAR     77  32  19 W14       29.70R
$$

NVZ020-UTZ003-230500-
SOUTHERN NEVADA-UTAH

CITY           SKY/WX    TMP DP  RH WIND       PRES   REMARKS
LAS VEGAS      NOT AVBL
SALT LAKE CITY RAIN      42  42 100 N16G23    29.88R
$$

NMZ009-TXZ055-230500-
NEW MEXICO-WEST TEXAS

CITY           SKY/WX    TMP DP  RH WIND       PRES   REMARKS
ALBUQUERQUE    MOCLDY    71  28  20 S12       29.88R
EL PASO        CLOUDY    81  34  18 S13G18    29.84R
$$


........................KEY........................
SKY/WX - SKY CONDITION/WEATHER
TMP    - TEMPERATURE IN FAHRENHEIT
DP     - DEW POINT IN FAHRENHEIT
RH     - RELATIVE HUMIDITY IN PERCENT
WIND   - DIRECTION AND SPEED IN MILES PER HOUR (MPH)
VRB    - VARIABLE WIND DIRECTION
PRES   - MEAN SEA LEVEL PRESSURE IN INCHES OF MERCURY
         F - FALLING PRESSURE   R - RISING PRESSURE
         S - STEADY PRESSURE
VSB    - VISIBILITY IN MILES
HX     - HEAT INDEX IN FAHRENHEIT
WCI    - WIND CHILL INDEX IN FAHRENHEIT
TC     - TEMPERATURE IN CELSIUS WHICH IS ALSO KNOWN AS
         TEMPERATURE IN CENTIGRADE
AFB    - AIR FORCE BASE
         LUKE AFB IS LUKE AIR FORCE BASE
         DAVIS-MONTHAN IS DAVIS-MONTHAN AIR FORCE BASE
NAS    - NAVAL AIR STATION
         EL CENTRO NAS IS EL CENTRO NAVAL AIR STATION
N/A    - NOT AVAILABLE



USA.gov is the U.S. government's official web portal to all federal, state and local government web resources and services.